Stations météo

réclame
Mon MeteoGroup
St-Hubert, Belgique (6476): Température de l'air & dewpoint: 19.02.2018 22:00:00 - 25.02.2018 22:00:00 (CET)St-Hubert, Belgique (6476): Vitesse du vent & gusts: 19.02.2018 22:00:00 - 25.02.2018 22:00:00 (CET)St-Hubert, Belgique (6476): Direction du vent: 19.02.2018 22:00:00 - 25.02.2018 22:00:00 (CET)St-Hubert, Belgique (6476): reduced air pressure: 19.02.2018 22:00:00 - 25.02.2018 22:00:00 (CET)St-Hubert, Belgique (6476): visibility: 19.02.2018 22:00:00 - 25.02.2018 22:00:00 (CET)
Date & Time tt [°C] td [°C] ff [km/h] ff [knt] fx [km/h] fx [knt] dd ppp [hPa] vv [km]
25.02.2018 22:00:00 -7,3 -13,0 11 6 - - ENE 1026,8 45
25.02.2018 21:00:00 -6,7 -14,2 14 8 22 12 ENE 1026,6 50
25.02.2018 20:00:00 -5,8 -17,6 11 6 25 14 ENE 1026,3 50
25.02.2018 19:00:00 -5,0 -17,6 14 8 - - NE 1026,2 45
25.02.2018 18:00:00 -4,0 -18,6 14 8 32 18 ENE 1025,6 45
25.02.2018 17:00:00 -3,3 -19,6 22 12 36 19 ENE 1025,3 45
25.02.2018 16:00:00 -2,8 -18,3 18 10 - - E 1025,3 40
25.02.2018 15:00:00 -3,0 -17,3 14 8 32 18 ENE 1025,5 30
25.02.2018 14:00:00 -3,3 -17,5 18 10 36 19 E 1025,9 40
25.02.2018 13:00:00 -4,2 -19,1 25 14 - - E 1026,5 30
25.02.2018 12:00:00 -4,9 -16,3 22 12 40 21 E 1026,4 30
25.02.2018 11:00:00 -5,9 -15,1 25 14 43 23 E 1026,7 35
25.02.2018 10:00:00 -7,3 -15,4 22 12 - - E 1026,9 35
25.02.2018 09:00:00 -8,8 -14,6 22 12 36 19 E 1026,4 45
25.02.2018 08:00:00 -9,4 -14,8 18 10 36 19 E 1026,4 45
25.02.2018 07:00:00 -8,9 -13,7 25 14 - - E 1025,8 45
25.02.2018 06:00:00 -8,5 -13,4 29 16 50 27 E 1025,0 45
25.02.2018 05:00:00 -7,9 -12,9 32 18 50 27 E 1024,3 50
25.02.2018 04:00:00 -7,4 -12,8 29 16 - - E 1024,6 45
25.02.2018 03:00:00 -7,1 -12,8 25 14 43 23 E 1024,4 50
25.02.2018 02:00:00 -6,7 -12,9 25 14 47 25 E 1024,3 50
25.02.2018 01:00:00 -6,1 -12,2 22 12 - - E 1023,9 50
25.02.2018 00:00:00 -5,6 -12,2 25 14 43 23 E 1023,7 45
24.02.2018 23:00:00 -5,2 -11,5 25 14 47 25 E 1023,4 45
24.02.2018 22:00:00 -4,8 -11,3 29 16 - - E 1022,9 45
24.02.2018 21:00:00 -4,3 -11,4 29 16 50 27 E 1022,5 35
24.02.2018 20:00:00 -3,3 -9,5 25 14 47 25 E 1021,9 50
24.02.2018 19:00:00 -1,7 -8,6 25 14 - - E 1021,0 45
24.02.2018 18:00:00 -0,8 -10,5 22 12 50 27 E 1020,5 45
24.02.2018 17:00:00 0,3 -11,3 25 14 50 27 E 1020,1 40
24.02.2018 16:00:00 1,6 -10,4 25 14 - - E 1019,3 35
24.02.2018 15:00:00 0,8 -11,9 32 18 61 33 E 1019,1 30
24.02.2018 14:00:00 0,2 -13,5 32 18 68 37 E 1019,0 30
24.02.2018 13:00:00 -0,5 -14,7 40 21 - - E 1019,3 30
24.02.2018 12:00:00 -1,6 -14,7 36 19 61 33 E 1019,7 35
24.02.2018 11:00:00 -2,8 -14,3 36 19 61 33 E 1019,9 24
24.02.2018 10:00:00 -4,5 -14,1 32 18 - - E 1020,1 23
24.02.2018 09:00:00 -6,6 -13,6 29 16 43 23 E 1020,4 19
24.02.2018 08:00:00 -8,1 -12,1 22 12 40 21 ENE 1020,8 12
24.02.2018 07:00:00 -7,9 -11,9 25 14 - - E 1020,1 11
24.02.2018 06:00:00 -7,4 -11,6 25 14 36 19 ENE 1019,4 11
24.02.2018 05:00:00 -6,9 -11,2 25 14 40 21 E 1019,2 13
24.02.2018 04:00:00 -6,5 -11,2 22 12 - - E 1019,3 13
24.02.2018 03:00:00 -6,1 -11,6 22 12 43 23 E 1019,4 16
24.02.2018 02:00:00 -5,8 -11,9 25 14 43 23 E 1019,0 20
24.02.2018 01:00:00 -5,5 -12,4 29 16 - - E 1018,8 26
24.02.2018 00:00:00 -5,2 -12,2 29 16 47 25 E 1018,8 29
23.02.2018 23:00:00 -4,9 -12,2 25 14 43 23 E 1018,8 30
23.02.2018 22:00:00 -4,5 -12,5 25 14 - - E 1018,8 30
23.02.2018 21:00:00 -3,9 -11,9 22 12 36 19 E 1019,2 40
23.02.2018 20:00:00 -3,6 -11,7 22 12 36 19 ENE 1018,7 35
23.02.2018 19:00:00 -3,0 -11,7 18 10 - - ENE 1018,4 40
23.02.2018 18:00:00 -2,0 -12,5 14 8 36 19 ENE 1018,3 30
23.02.2018 17:00:00 -1,2 -11,8 22 12 36 19 ENE 1017,7 35
23.02.2018 16:00:00 -0,6 -12,2 22 12 - - ENE 1017,8 30
23.02.2018 15:00:00 -0,9 -12,7 22 12 40 21 ENE 1017,8 30
23.02.2018 14:00:00 -1,6 -12,8 22 12 43 23 ENE 1018,4 25
23.02.2018 13:00:00 -2,7 -11,7 25 14 - - E 1019,1 35
23.02.2018 12:00:00 -3,2 -11,3 32 18 50 27 ENE 1019,1 29
23.02.2018 11:00:00 -4,5 -11,5 29 16 47 25 ENE 1019,2 40
23.02.2018 10:00:00 -5,7 -11,4 29 16 - - ENE 1019,8 30
23.02.2018 09:00:00 -6,9 -11,2 25 14 36 19 ENE 1020,3 40
23.02.2018 08:00:00 -7,5 -11,4 22 12 36 19 E 1020,6 40
23.02.2018 07:00:00 -7,4 -11,0 22 12 - - ENE 1020,5 40
23.02.2018 06:00:00 -7,3 -10,6 22 12 29 16 ENE 1020,4 35
23.02.2018 05:00:00 -7,2 -10,5 18 10 32 18 ENE 1020,5 27
23.02.2018 04:00:00 -6,6 -10,4 18 10 - - ENE 1019,9 30
23.02.2018 03:00:00 -6,0 -10,1 22 12 36 19 ENE 1020,3 30
23.02.2018 02:00:00 -5,5 -9,9 22 12 47 25 ENE 1020,4 30
23.02.2018 01:00:00 -5,1 -9,8 22 12 - - E 1020,4 35
23.02.2018 00:00:00 -4,9 -9,6 18 10 32 18 E 1020,7 40
22.02.2018 23:00:00 -4,3 -9,4 18 10 43 23 ENE 1020,9 35
22.02.2018 22:00:00 -3,8 -9,1 25 14 - - ENE 1020,7 35
22.02.2018 21:00:00 -3,4 -8,6 22 12 32 18 ENE 1020,6 30
22.02.2018 20:00:00 -3,0 -8,6 14 8 29 16 ENE 1020,5 35
22.02.2018 19:00:00 -2,4 -9,2 18 10 - - ENE 1020,1 35
22.02.2018 18:00:00 -1,6 -9,1 18 10 40 21 NE 1019,7 35
22.02.2018 17:00:00 -0,8 -9,3 22 12 40 21 NE 1019,4 35
22.02.2018 16:00:00 -0,6 -9,0 25 14 - - NE 1019,5 35
22.02.2018 15:00:00 -0,2 -9,2 25 14 40 21 ENE 1019,7 30
22.02.2018 14:00:00 -0,1 -9,9 22 12 50 27 ENE 1020,2 35
22.02.2018 13:00:00 -0,8 -10,0 25 14 - - ENE 1020,6 40
22.02.2018 12:00:00 -1,3 -9,7 25 14 50 27 E 1021,0 30
22.02.2018 11:00:00 -2,6 -9,0 29 16 43 23 E 1021,2 30
22.02.2018 10:00:00 -4,0 -8,3 18 10 - - E 1021,9 18
22.02.2018 09:00:00 -5,8 -8,5 18 10 29 16 ENE 1022,2 11
22.02.2018 08:00:00 -6,7 -8,8 18 10 29 16 ENE 1022,3 -
22.02.2018 07:00:00 -6,9 -8,8 18 10 - - ENE 1022,0 -
22.02.2018 06:00:00 -6,6 -8,5 14 8 22 12 ENE 1021,9 -
22.02.2018 05:00:00 -6,2 -8,4 14 8 25 14 ENE 1021,7 -
22.02.2018 04:00:00 -5,6 -8,0 14 8 - - ENE 1022,0 -
22.02.2018 03:00:00 -5,5 -7,5 18 10 25 14 ENE 1022,5 -
22.02.2018 02:00:00 -5,1 -7,3 14 8 25 14 ENE 1022,5 5
22.02.2018 01:00:00 -5,1 -7,1 11 6 - - ENE 1023,0 5
22.02.2018 00:00:00 -4,4 -6,8 14 8 22 12 ENE 1023,0 -
21.02.2018 23:00:00 -4,0 -6,6 11 6 22 12 NE 1023,2 -
21.02.2018 22:00:00 -3,3 -6,5 14 8 - - ENE 1023,2 -
21.02.2018 21:00:00 -2,7 -6,4 14 8 29 16 NE 1023,1 -
21.02.2018 20:00:00 -2,3 -6,0 18 10 25 14 NE 1023,2 -
21.02.2018 19:00:00 -1,7 -5,3 22 12 - - NNE 1023,0 -
21.02.2018 18:00:00 -0,6 -4,8 22 12 29 16 NNE 1022,4 -
21.02.2018 17:00:00 0,4 -4,7 22 12 32 18 NNE 1022,3 -
21.02.2018 16:00:00 1,2 -4,5 22 12 - - NNE 1022,0 -
21.02.2018 15:00:00 1,4 -4,9 22 12 32 18 N 1022,5 -
21.02.2018 14:00:00 1,2 -5,4 22 12 29 16 N 1023,1 9
21.02.2018 13:00:00 1,0 -4,6 14 8 - - NE 1023,4 11
21.02.2018 12:00:00 -0,7 -5,3 18 10 32 18 NE 1023,9 -
21.02.2018 11:00:00 -2,5 -6,0 22 12 32 18 ENE 1024,2 -
21.02.2018 10:00:00 -3,8 -6,3 18 10 - - NE 1024,8 5
21.02.2018 09:00:00 -5,2 -7,0 11 6 25 14 ENE 1024,9 3,4
21.02.2018 08:00:00 -5,8 -7,4 14 8 22 12 ENE 1024,1 3,2
21.02.2018 07:00:00 -6,1 -7,4 14 8 - - ENE 1024,1 2,0
21.02.2018 06:00:00 -5,5 -6,3 7 4 11 6 NE 1024,3 2,1
21.02.2018 05:00:00 -5,2 -6,6 7 4 14 8 NE 1023,6 2,1
21.02.2018 04:00:00 -4,9 -6,0 11 6 - - ENE 1022,8 2,0
21.02.2018 03:00:00 -5,2 -6,3 7 4 11 6 ENE 1023,4 2,3
21.02.2018 02:00:00 -3,8 -5,6 7 4 14 8 NNE 1023,1 3,8
21.02.2018 01:00:00 -3,6 -5,3 11 6 - - ENE 1022,4 4,0
21.02.2018 00:00:00 -2,9 -4,7 11 6 18 10 ENE 1021,5 4,1
20.02.2018 23:00:00 -2,6 -4,7 11 6 18 10 NE 1021,2 4,6
20.02.2018 22:00:00 -1,9 -4,0 11 6 - - NE 1020,7 4,8
20.02.2018 21:00:00 -1,4 -3,8 11 6 22 12 NE 1020,5 4,5
20.02.2018 20:00:00 -0,7 -3,4 14 8 18 10 NNE 1019,6 5
20.02.2018 19:00:00 -0,6 -3,5 7 4 - - NNE 1019,2 -
20.02.2018 18:00:00 0,2 -3,6 11 6 14 8 N 1018,6 -
20.02.2018 17:00:00 1,1 -4,0 11 6 18 10 N 1017,9 10
20.02.2018 16:00:00 1,6 -4,3 11 6 - - N 1017,5 11
20.02.2018 15:00:00 1,5 -5,1 7 4 18 10 NNW 1017,8 12
20.02.2018 14:00:00 1,1 -5,0 11 6 18 10 N 1018,1 11
20.02.2018 13:00:00 0,5 -5,0 7 4 - - NNE 1018,0 14
20.02.2018 12:00:00 0,4 -3,6 4 2 14 8 WNW 1018,9 -
20.02.2018 11:00:00 -1,0 -3,9 7 4 11 6 E 1018,7 -
20.02.2018 10:00:00 -1,8 -4,0 0 0 - - N 1018,6 5
20.02.2018 09:00:00 -2,6 -4,3 14 8 22 12 E 1018,1 4,0
20.02.2018 08:00:00 -3,2 -4,1 11 6 14 8 ENE 1018,2 1,8
20.02.2018 07:00:00 -3,1 -4,1 7 4 - - ENE 1018,1 2,7
20.02.2018 06:00:00 -3,2 -4,1 4 2 7 4 ENE 1018,5 2,3
20.02.2018 05:00:00 -3,3 -4,3 7 4 7 4 ENE 1018,4 3,3
20.02.2018 04:00:00 -3,4 -4,3 4 2 - - NE 1018,2 3,2
20.02.2018 03:00:00 -2,9 -4,2 4 2 7 4 NE 1017,8 4,3
20.02.2018 02:00:00 -2,4 -3,9 4 2 7 4 E 1017,8 -
20.02.2018 01:00:00 -2,3 -3,5 4 2 - - E 1018,0 -
20.02.2018 00:00:00 -2,1 -3,4 4 2 7 4 SE 1017,9 5
19.02.2018 23:00:00 -2,0 -3,5 4 2 7 4 SE 1018,0 5
19.02.2018 22:00:00 -1,7 -3,4 4 2 - - SSW 1018,3 -

tt = Température de l'air
td = dewpoint
ff = Vitesse du vent
fx = gusts
dd = Direction du vent
ppp = reduced air pressure
vv = visibility

stations d'obs. à proximité